Weather History for KPSX - October, 2012

Change the Weather History Date:

Saturday, October 13, 2012

  Actual Average Record
Temperature  
Mean Temperature 82 °F -  
Max Temperature 88 °F 81 °F 90 °F (1962)
Min Temperature 77 °F 62 °F 41 °F (1977)
Cooling Degree Days 17    
Growing Degree Days 32 (Base 50)    
Moisture  
Dew Point 73 °F    
Average Humidity 74    
Maximum Humidity 84    
Minimum Humidity 62    
Precipitation  
Precipitation 0.00 in - - ()
Sea Level Pressure  
Sea Level Pressure 30.04 in    
Wind  
Wind Speed 13 mph (SSE)    
Max Wind Speed 23 mph    
Max Gust Speed 29 mph    
Visibility 10 miles    
Events      
Averages and records for this station are not official NWS values.
T = Trace of Precipitation, MM = Missing Value Source: NWS Daily Summary

Daily Weather History Graph

Daily Weather History Graph

Search for Another Location

Airport or City:

Trip Planner

Search our weather history database for the weather conditions in past years. The results will help you decide how hot, cold, wet, or windy it might be!

Date:

Astronomy

Oct. 13, 2012 Rise Set
Actual Time 7:25 AM CDT 6:56 PM CDT
Civil Twilight 7:01 AM CDT 7:20 PM CDT
Nautical Twilight 6:33 AM CDT 7:47 PM CDT
Astronomical Twilight 6:06 AM CDT 8:15 PM CDT
Moon 5:23 AM CDT (10/13) 5:36 PM CDT (10/13)
Length of Visible Light 12h 19m
Length of Day
11h 31m
Waning Crescent, 5% of the Moon is Illuminated
Oct 13
Waning Crescent
Oct 15
New
Oct 21
First Quarter
Oct 29
Full
Nov 6
Last Quarter

Hourly Weather History & Observations

Time (CDT) Temp. Heat Index Dew Point Humidity Pressure Visibility Wind Dir Wind Speed Gust Speed Precip Events Conditions
12:53 AM 79.0 °F - 73.0 °F 82% 30.10 in 10.0 mi SSE 11.5 mph - N/A   Clear
1:53 AM 79.0 °F - 72.0 °F 79% 30.08 in 10.0 mi SE 12.7 mph - N/A   Clear
2:53 AM 79.0 °F - 72.0 °F 79% 30.07 in 10.0 mi SSE 9.2 mph - N/A   Clear
3:53 AM 78.1 °F - 72.0 °F 81% 30.06 in 10.0 mi SSE 9.2 mph - N/A   Clear
4:53 AM 78.1 °F - 72.0 °F 81% 30.06 in 10.0 mi SSE 10.4 mph - N/A   Clear
5:53 AM 78.1 °F - 71.1 °F 79% 30.06 in 10.0 mi SSE 9.2 mph - N/A   Clear
6:53 AM 77.0 °F - 72.0 °F 84% 30.06 in 10.0 mi SSE 8.1 mph - N/A   Clear
7:53 AM 78.1 °F - 71.1 °F 79% 30.06 in 10.0 mi SSE 12.7 mph - N/A   Clear
8:53 AM 81.0 °F 84.9 °F 71.1 °F 72% 30.06 in 10.0 mi SSE 12.7 mph - N/A   Clear
9:53 AM 82.9 °F 88.0 °F 72.0 °F 69% 30.08 in 10.0 mi SSE 12.7 mph - N/A   Clear
10:53 AM 84.9 °F 91.4 °F 73.0 °F 67% 30.09 in 10.0 mi SSE 17.3 mph 24.2 mph N/A   Overcast
11:01 AM 84.2 °F 90.9 °F 73.4 °F 70% 30.08 in 10.0 mi SSE 18.4 mph 23.0 mph N/A   Overcast
11:53 AM 84.9 °F 92.1 °F 73.9 °F 69% 30.07 in 10.0 mi SSE 18.4 mph 25.3 mph N/A   Overcast
12:53 PM 87.8 °F 95.6 °F 73.4 °F 62% 30.06 in 10.0 mi SSE 21.9 mph 26.5 mph N/A   Mostly Cloudy
1:53 PM 86.0 °F 92.2 °F 72.0 °F 63% 30.03 in 10.0 mi SSE 23.0 mph 28.8 mph N/A   Overcast
2:53 PM 87.1 °F 94.5 °F 73.0 °F 63% 30.01 in 10.0 mi South 21.9 mph 27.6 mph N/A   Overcast
3:53 PM 87.1 °F 94.5 °F 73.0 °F 63% 29.99 in 10.0 mi SSE 17.3 mph 23.0 mph N/A   Mostly Cloudy
4:53 PM 86.0 °F 93.0 °F 73.0 °F 65% 29.98 in 10.0 mi SSE 17.3 mph 25.3 mph N/A   Mostly Cloudy
5:53 PM 84.0 °F 90.2 °F 73.0 °F 69% 29.96 in 10.0 mi SSE 15.0 mph 25.3 mph N/A   Partly Cloudy
7:50 PM 82.4 °F 88.2 °F 73.4 °F 74% 29.98 in 10.0 mi SSE 11.5 mph 19.6 mph N/A   Mostly Cloudy
7:53 PM 82.0 °F 87.4 °F 73.0 °F 74% 29.99 in 10.0 mi SSE 10.4 mph - N/A   Mostly Cloudy
8:07 PM 80.6 °F 85.4 °F 73.4 °F 79% 29.99 in 10.0 mi SSE 11.5 mph - N/A   Mostly Cloudy
8:53 PM 80.6 °F 85.4 °F 73.4 °F 79% 29.99 in 9.0 mi SSE 13.8 mph - N/A   Mostly Cloudy
9:53 PM 81.0 °F 85.8 °F 73.0 °F 77% 30.00 in 10.0 mi SSE 13.8 mph 24.2 mph N/A   Partly Cloudy
11:53 PM 80.6 °F 85.4 °F 73.4 °F 79% 29.99 in 10.0 mi SSE 12.7 mph - N/A   Clear